This demonstration page uses our WeatherBlox Daily Observations layout. Learn more.

Left ArrowRight Arrow

47.50024, -111.30081

Hourly Observations for March 15, 2015

Temp ( °F °C ) Dew Point ( °F °C ) Humidity (%) Winds ( mph kmh ) Pressure ( in mb ) Visibility ( mi km ) Precip ( " mm )
12:53 am 00:53 Clear 55 12.8 38 3.3 53 53 SW 20 31 29.73 1007 10 16 0.00 0.00
1:53 am 01:53 Clear 55 12.8 37 2.8 51 51 SSW 14 22 29.75 1008 10 16 0.00 0.00
2:53 am 02:53 Mostly Clear 49 9.4 36 2.2 61 61 SW 7 11 29.78 1008 10 16 0.00 0.00
3:53 am 03:53 Clear 45 7.2 36 2.2 71 71 WSW 8 13 29.80 1009 10 16 0.00 0.00
4:53 am 04:53 Clear 45 7.2 36 2.2 71 71 W 8 13 29.80 1009 10 16 0.00 0.00
5:53 am 05:53 Clear 46 7.8 36 2.2 68 68 Calm 29.82 1010 10 16 0.00 0.00
6:53 am 06:53 Clear 47 8.3 37 2.8 69 69 NW 6 9 29.83 1010 10 16 0.00 0.00
7:53 am 07:53 Sunny 46 7.8 38 3.3 73 73 WNW 5 7 29.84 1011 10 16 0.00 0.00
8:53 am 08:53 Sunny 49 9.4 42 5.6 77 77 Calm 29.84 1011 10 16 0.00 0.00
9:53 am 09:53 Mostly Cloudy 54 12.2 42 5.6 64 64 Calm 29.83 1010 10 16 0.00 0.00
10:53 am 10:53 Sunny 57 13.9 40 4.4 53 53 SW 15 24 29.83 1010 10 16 0.00 0.00
11:53 am 11:53 Sunny 59 15 40 4.4 49 49 SW 23 37 29.81 1010 10 16 0.00 0.00
12:53 pm 12:53 Mostly Sunny 59 15 40 4.4 49 49 SW 28 44 29.82 1010 10 16 0.00 0.00
1:53 pm 13:53 Partly Cloudy 60 15.6 36 2.2 41 41 WSW 32 52 29.80 1009 10 16 0.00 0.00
2:53 pm 14:53 Cloudy 59 15 36 2.2 42 42 WSW 18 30 29.81 1010 10 16 0.00 0.00
3:53 pm 15:53 Sunny 60 15.6 36 2.2 41 41 SW 22 35 29.79 1009 10 16 0.00 0.00
4:53 pm 16:53 Sunny 61 16.1 35 1.7 38 38 SW 24 39 29.77 1008 10 16 0.00 0.00
5:53 pm 17:53 Mostly Sunny 62 16.7 33 0.6 34 34 SW 18 30 29.75 1008 10 16 0.00 0.00
6:53 pm 18:53 Mostly Sunny 62 16.7 32 0 32 32 SW 17 28 29.73 1007 10 16 0.00 0.00
7:53 pm 19:53 Partly Cloudy 59 15 32 0 36 36 W 12 19 29.76 1008 10 16 0.00 0.00
8:53 pm 20:53 Mostly Cloudy 56 13.3 34 1.1 44 44 W 15 24 29.78 1009 10 16 0.00 0.00
9:53 pm 21:53 Mostly Cloudy 56 13.3 32 0 40 40 WSW 10 17 29.76 1008 10 16 0.00 0.00
10:53 pm 22:53 Clear 61 16.1 29 -1.7 30 30 SSW 18 30 29.70 1006 10 16 0.00 0.00
11:53 pm 23:53 Clear 61 16.1 27 -2.8 27 27 WSW 14 22 29.70 1006 10 16 0.00 0.00

Powered by AerisWeather